Preview of NWS' New Version of Forecast
This preview is not operational and should not be used for support decisions.

Regional Weather Roundup (RWR)

Issued by Austin/San Antonio, TX (EWX)

                            
274 
ASUS44 KEWX 212311
RWREWX
SOUTH TEXAS REGIONAL WEATHER ROUNDUP
NATIONAL WEATHER SERVICE AUSTIN/SAN ANTONIO TX
600 PM CDT THU JUN 21 2018

NOTE: "FAIR" INDICATED FEW OR NO CLOUDS BELOW 12,000 FEET WITH NO
SIGNIFICANT WEATHER AND/OR OBSTRUCTIONS TO VISIBILITY.

* - THESE STATIONS ARE NOT NWS OR FAA STATIONS...AND ARE NOT SUBJECT
    TO NWS AND FAA QUALITY CONTROL.
 
TXZ171-172-183>190-220000-
TEXAS HILL COUNTRY AND EDWARDS PLATEAU
  
CITY           SKY/WX    TMP DP  RH WIND       PRES   REMARKS
JUNCTION       MOSUNNY   95  65  37 VRB5      29.90F HX  97           
*LLANO         CLOUDY    97  70  41 SE9       29.91  HX 103           
BURNET         CLOUDY    93  69  45 SE9       29.91F HX  98           
*HORSESHOE BAY CLOUDY    92  66  43 S6        29.89F HX  94           
*KERRVILLE     CLOUDY    92  67  44 S9        29.92F HX  95           
*FREDERICKSBRG CLOUDY    90  63  40 CALM      29.92F HX  90           
*ROCKSPRINGS   SUNNY     91  63  38 SE14      29.99F HX  92           
*BOERNE STAGE  PTSUNNY   86  66  51 S8        29.92F                  
*CASTROVILLE   PTSUNNY   89  67  49 S8        29.89F HX  92           
HONDO          CLOUDY    91  71  51 SE10      29.88F HX  97           
*UVALDE        CLOUDY    89  69  50 SE10      29.89S HX  93           
DEL RIO        MOSUNNY   96  68  39 E14G24    29.84S HX 101           
LAUGHLIN AFB   PTSUNNY   96  65  35 SE16G24   29.84F HX  99           
CARRIZO SPRGS  MOSUNNY   90  70  51 E10       29.85F HX  95           
*EAGLE PASS    CLEAR     91  66  43 SE13      29.87S HX  94           
*FAITH RANCH   MOSUNNY   90  70  51 E13G20    29.87S HX  95           
$$

TXZ173-191>194-202-209-217>225-228-220000-
CENTRAL AND SOUTH CENTRAL TEXAS
  
CITY           SKY/WX    TMP DP  RH WIND       PRES   REMARKS
GEORGETOWN     MOSUNNY   92  72  51 S9        29.88F HX  99           
AUSTIN/BERGSTM PTSUNNY   93  71  48 SE12      29.86F HX 100           
AUSTIN/MABRY   MOSUNNY   93  72  50 S6        29.87F HX 101           
*AUSTIN/EXEC   MOSUNNY   91  75  59 SW6       29.88S HX 102           
*LAGO VISTA    MOSUNNY   91  68  46 S3        29.90F HX  95           
SAN MARCOS     MOSUNNY   90  73  57 S7        29.88F HX  98           
NEW BRAUNFELS  PTSUNNY   91  72  53 SE13      29.87S HX  98           
RANDOLPH AFB   PTSUNNY   91  73  55 S12       29.88F HX  98           
PT SAN ANTONIO PTSUNNY   90  72  55 SE13      29.86F HX  96           
SAN ANTONIO    PTSUNNY   92  70  48 S12       29.88F HX  97           
STINSON FIELD  PTSUNNY   90  73  57 SE14      29.86F HX  98           
*LA GRANGE     CLOUDY    91  77  63 S10       29.86S HX 104           
*GIDDINGS      CLOUDY    89  73  59 S5        29.88F HX  97           
*GONZALES      CLOUDY    89  75  64 S9        29.87F HX  98           
$$

TXZ163>164-176>182-195>201-210>213-226-227-235-220000-
SOUTHEAST TEXAS
  
CITY           SKY/WX    TMP DP  RH WIND       PRES   REMARKS
COLLEGE STN    CLOUDY    90  75  61 S5        29.86F HX 100           
*BRYAN         CLOUDY    89  75  62 SE3       29.87F HX  99           
*CALDWELL      CLOUDY    90  76  62 E5        29.87S HX 101           
*CROCKETT      CLOUDY    91  73  55 CALM      29.88S HX 100           
*BRENHAM       CLOUDY    89  74  61 SE8       29.87F HX  99           
HUNTSVILLE     PTSUNNY   89  76  65 S7        29.87S HX 100           
CONROE         PTSUNNY   88  78  72 S9        29.87F HX 101           
HOUSTON BUSH   CLOUDY    88  76  67 S6        29.87F HX  99           
HOUSTON HOBBY  PTSUNNY   85  78  80 S8        29.87F HX  96           
*HOUSTON SW AP PTSUNNY   85  77  77 SE7       29.88F HX  95           
PEARLAND       FAIR      85  75  72 S7        29.88F HX  93           
HOUSTON HOOKS  FAIR      88  74  63 S5        29.87F HX  96           
ELLINGTON FLD  PTSUNNY   86  81  84 S7        29.89F HX 102           
SUGAR LAND     FAIR      88  76  67 SE7       29.87F HX  99           
*HOUSTON EXEC    N/A     88  75  66 SW6       29.89S HX  97           
*CLEVELAND MUN FAIR      88  75  65 S8        29.88F HX  97           
*WHARTON       PTSUNNY   83  73  72 S3        29.89F                  
*COLUMBUS      FAIR      87  74  66 S6        29.89S HX  95           
*EAGLE LAKE    CLOUDY    87  76  70 SW5       29.88F HX  98           
$$

TXZ214>216-236>238-220000-
THE UPPER TEXAS COAST
  
CITY           SKY/WX    TMP DP  RH WIND       PRES   REMARKS
*ORANGE        FAIR      84  78  82 S6        29.89F HX  95           
PORT ARTHUR    FAIR      86  75  69 S16       29.87F HX  95           
GALVESTON      FAIR      84  78  82 S9        29.88F HX  95           
ANGLETON       PTSUNNY   86  75  69 S7        29.87F HX  95           
*BAY CITY      PTSUNNY   85  76  74 SE5       29.88S HX  95           
PALACIOS       PTSUNNY   84  79  85 SE9       29.87F HX  96           
$$

TXZ229>234-239>247-220000-
TEXAS COASTAL BEND AND RIO GRANDE PLAINS
  
CITY           SKY/WX    TMP DP  RH WIND       PRES   REMARKS
VICTORIA       PTSUNNY   85  74  69 E8        29.88F HX  92           
*BEEVILLE      PTSUNNY   81  77  86 E8        29.87F                  
ROCKPORT       CLOUDY    83  77  82 SE10      29.86F HX  92           
*PORT ARANSAS  PTSUNNY   83  78  85 E10       29.86F HX  94           
*PORT LAVACA   PTSUNNY   83  76  78 E8        29.87F HX  92           
*INGLESIDE     CLOUDY    85  78  80 SE10      29.85F HX  96           
CORPUS CHRISTI CLOUDY    83  79  88 E12       29.84F HX  94           
CORPUS NAS     CLOUDY    85  80  85 SE16      29.83F HX  99           
*ROBSTOWN      CLOUDY    82  77  86 E10G16    29.84F                  
ALICE          CLOUDY    79  76  90 E3        29.84S                  
KINGSVILLE NAS CLOUDY    81  78  91 E12       29.82F                  
COTULLA        PTSUNNY   86  74  67 SE14      29.87S HX  94           
LAREDO         CLOUDY    78  76  93 NE9       29.86S                  
$$

TXZ248>255-220000-
DEEP SOUTH TEXAS
  
CITY           SKY/WX    TMP DP  RH WIND       PRES   REMARKS
BROWNSVILLE    PTSUNNY   85  78  80 E12       29.81F HX  96           
PORT ISABEL    FAIR      85  74  69 SE15      29.81F HX  92           
*SOUTH PADRE   NOT AVBL                                               
HARLINGEN      CLOUDY    81  79  94 E9        29.81F HX  90           
*HEBBRONVILLE  CLOUDY    76  73  89 SE9       29.86S                  
MCALLEN        CLOUDY    83  78  85 E9        29.81F HX  93           
*WESLACO       NOT AVBL                                               
FALFURRIAS     CLOUDY    76  74  92 E5        29.83S                  
EDINBURG       FAIR      82  76  82 E10       29.82F HX  90           
*ZAPATA        FAIR      81  73  76 E8        29.83S                  
$$

TXZ213>215-236>238-242>244-246-247-251-254-255-220000-
CMAN STATIONS
  
STATION/POSITION TIME  TEMP    WIND        PRES    WAVE
                       AIR SEA DIR/SP/G            HT/PER
                 (UTC) (F)     (DEG/KT/KT) (MB)    (FT/S)
SABINE PASS      2248   84 85  210/  5/  8 1013.6
SEA RIM ST PARK  2300   83     200/  7/  9 1012.4
NORTH JETTY/GLS  2236   83 83  180/  8/  9 1011.5
EAGLE POINT      2248   83 83  170/  9/ 10 1011.8
MORGANS POINT    2248   84 84  130/  5/  7 1011.7
MISSION/ARANSAS  2200           80/  4     1012.0
PORT O'CONNOR    2248   83 82  130/  8/ 10 1011.1
PORT ARANSAS     2300   82 82  100/ 10/ 12 1010.8
MALAQUITE BEACH  2248   83 82   90/ 15/ 17 1009.9
BAFFIN BAY       2248   82 83   80/ 15/ 17 1010.4
PORT ISABEL      2248   82 83  130/ 10/ 13 1009.9
$$